When you browse on this site, cookies collect data to enhance your experience and personalize the content and advertising you see.
Visit our Privacy Policy to learn more. By continuing to use the site, you agree to this use of cookies and data.
  • In Österreich
  • Länderverzeichnis
  • Für 7 Tage
  • Wassertemperatur
  • Wetterkarte
  • News
  • Widgets
  • user-avatar
    Anmelden

    Stündliche Wetter Evora

    Heute, 2 April, Donnerstag

    Zeit Temperatur Niederschläge Wind Luftdruck Luftfeuchtigkeit
    00:00 +6°C° 0.2 mm 1 m/S 733 mmHg 93%
    01:00 +6°C° 0.2 mm 1 m/S 733 mmHg 94%
    02:00 +6°C° 0.2 mm 1 m/S 733 mmHg 94%
    03:00 +5°C° 0 mm 2 m/S 733 mmHg 95%
    04:00 +4°C° 0 mm 2 m/S 733 mmHg 96%
    05:00 +3°C° 0 mm 3 m/S 734 mmHg 97%
    06:00 +5°C° 0 mm 3 m/S 734 mmHg 92%
    07:00 +8°C° 0 mm 3 m/S 735 mmHg 88%
    08:00 +10°C° 0 mm 3 m/S 736 mmHg 83%
    09:00 +12°C° 0 mm 4 m/S 736 mmHg 74%
    10:00 +14°C° 0 mm 4 m/S 736 mmHg 65%
    11:00 +17°C° 0 mm 4 m/S 737 mmHg 56%
    12:00 +17°C° 0 mm 4 m/S 736 mmHg 55%
    13:00 +17°C° 0 mm 4 m/S 736 mmHg 54%
    14:00 +17°C° 0 mm 4 m/S 736 mmHg 53%
    15:00 +17°C° 0 mm 4 m/S 736 mmHg 59%
    16:00 +16°C° 0 mm 3 m/S 736 mmHg 64%
    17:00 +14°C° 0 mm 3 m/S 736 mmHg 69%
    18:00 +12°C° 0 mm 3 m/S 737 mmHg 75%
    19:00 +11°C° 0 mm 3 m/S 737 mmHg 82%
    20:00 +9°C° 0 mm 3 m/S 738 mmHg 88%
    21:00 +8°C° 0 mm 2 m/S 737 mmHg 89%
    22:00 +8°C° 0 mm 2 m/S 737 mmHg 90%
    23:00 +8°C° 0 mm 1 m/S 737 mmHg 90%

    Morgen, 3 April, Freitag

    Zeit Temperatur Niederschläge Wind Luftdruck Luftfeuchtigkeit
    00:00 +8°C° 0 mm 1 m/S 737 mmHg 91%
    01:00 +8°C° 0 mm 1 m/S 737 mmHg 91%
    02:00 +7°C° 0 mm 1 m/S 737 mmHg 91%
    03:00 +6°C° 0 mm 0 m/S 737 mmHg 91%
    04:00 +6°C° 0 mm 0 m/S 736 mmHg 91%
    05:00 +6°C° 0 mm 0 m/S 736 mmHg 91%
    06:00 +8°C° 0 mm 0 m/S 737 mmHg 85%
    07:00 +10°C° 0 mm 0 m/S 737 mmHg 79%
    08:00 +12°C° 0 mm 0 m/S 737 mmHg 72%
    09:00 +15°C° 0 mm 1 m/S 737 mmHg 66%
    10:00 +18°C° 0 mm 1 m/S 737 mmHg 60%
    11:00 +20°C° 0 mm 1 m/S 737 mmHg 54%
    12:00 +21°C° 0 mm 1 m/S 737 mmHg 52%
    13:00 +21°C° 0 mm 1 m/S 737 mmHg 49%
    14:00 +21°C° 0 mm 2 m/S 736 mmHg 47%
    15:00 +21°C° 0 mm 1 m/S 736 mmHg 53%
    16:00 +20°C° 0 mm 1 m/S 736 mmHg 58%
    17:00 +19°C° 0 mm 1 m/S 736 mmHg 64%
    18:00 +16°C° 0 mm 1 m/S 736 mmHg 70%
    19:00 +14°C° 0 mm 1 m/S 736 mmHg 75%
    20:00 +12°C° 0 mm 1 m/S 736 mmHg 81%
    21:00 +11°C° 0 mm 1 m/S 736 mmHg 81%
    22:00 +11°C° 0 mm 1 m/S 736 mmHg 82%
    23:00 +11°C° 0 mm 1 m/S 736 mmHg 83%

    übermorgen, 4 April, Samstag

    Zeit Temperatur Niederschläge Wind Luftdruck Luftfeuchtigkeit
    00:00 +10°C° 0 mm 1 m/S 735 mmHg 83%
    01:00 +9°C° 0 mm 2 m/S 735 mmHg 84%
    02:00 +9°C° 0 mm 2 m/S 734 mmHg 84%
    03:00 +9°C° 0 mm 2 m/S 734 mmHg 85%
    04:00 +9°C° 0 mm 2 m/S 734 mmHg 85%
    05:00 +8°C° 0 mm 2 m/S 734 mmHg 86%
    06:00 +10°C° 0 mm 3 m/S 734 mmHg 80%
    07:00 +11°C° 0 mm 4 m/S 735 mmHg 74%
    08:00 +12°C° 0 mm 4 m/S 735 mmHg 69%
    09:00 +14°C° 0 mm 5 m/S 735 mmHg 67%
    10:00 +15°C° 0 mm 6 m/S 735 mmHg 65%
    11:00 +16°C° 0 mm 6 m/S 736 mmHg 62%
    12:00 +16°C° 0 mm 6 m/S 735 mmHg 65%
    13:00 +16°C° 0 mm 6 m/S 735 mmHg 68%
    14:00 +15°C° 0 mm 6 m/S 735 mmHg 71%
    15:00 +15°C° 0 mm 6 m/S 735 mmHg 74%
    16:00 +14°C° 0 mm 6 m/S 735 mmHg 77%
    17:00 +14°C° 0 mm 5 m/S 735 mmHg 81%
    18:00 +13°C° 0 mm 5 m/S 736 mmHg 83%
    19:00 +13°C° 0 mm 5 m/S 736 mmHg 86%
    20:00 +13°C° 0 mm 5 m/S 737 mmHg 88%
    21:00 +12°C° 0 mm 5 m/S 737 mmHg 90%
    22:00 +12°C° 0 mm 5 m/S 737 mmHg 92%
    23:00 +12°C° 0 mm 5 m/S 737 mmHg 94%

    5 April, Sonntag

    Zeit Temperatur Niederschläge Wind Luftdruck Luftfeuchtigkeit
    00:00 +12°C° 0 mm 5 m/S 737 mmHg 93%
    01:00 +12°C° 0 mm 5 m/S 737 mmHg 93%
    02:00 +12°C° 0 mm 5 m/S 737 mmHg 93%
    03:00 +13°C° 0 mm 5 m/S 737 mmHg 91%
    04:00 +13°C° 0 mm 5 m/S 737 mmHg 90%
    05:00 +13°C° 0 mm 5 m/S 737 mmHg 89%
    06:00 +14°C° 0 mm 6 m/S 737 mmHg 87%
    07:00 +14°C° 0 mm 6 m/S 737 mmHg 84%
    08:00 +15°C° 0 mm 6 m/S 738 mmHg 82%
    09:00 +16°C° 0.3 mm 6 m/S 738 mmHg 79%
    10:00 +17°C° 0.3 mm 6 m/S 738 mmHg 75%
    11:00 +20°C° 0.3 mm 6 m/S 739 mmHg 72%
    12:00 +19°C° 1.1 mm 6 m/S 738 mmHg 74%
    13:00 +19°C° 1.1 mm 6 m/S 738 mmHg 75%
    14:00 +19°C° 1.1 mm 6 m/S 738 mmHg 77%
    15:00 +19°C° 0.7 mm 5 m/S 738 mmHg 79%
    16:00 +17°C° 0.7 mm 5 m/S 738 mmHg 82%
    17:00 +18°C° 0.7 mm 4 m/S 738 mmHg 84%
    18:00 +17°C° 0.2 mm 4 m/S 738 mmHg 88%
    19:00 +14°C° 0.2 mm 3 m/S 739 mmHg 91%
    20:00 +13°C° 0.2 mm 3 m/S 739 mmHg 95%
    21:00 +13°C° 0.2 mm 3 m/S 740 mmHg 96%
    22:00 +13°C° 0.2 mm 3 m/S 740 mmHg 96%
    23:00 +13°C° 0.2 mm 3 m/S 740 mmHg 97%

    6 April, Montag

    Zeit Temperatur Niederschläge Wind Luftdruck Luftfeuchtigkeit
    00:00 +13°C° 0.2 mm 3 m/S 740 mmHg 97%
    01:00 +14°C° 0.2 mm 2 m/S 740 mmHg 98%
    02:00 +14°C° 0.2 mm 2 m/S 740 mmHg 98%
    03:00 +14°C° 0.1 mm 2 m/S 740 mmHg 98%
    04:00 +14°C° 0.1 mm 2 m/S 740 mmHg 98%
    05:00 +14°C° 0.1 mm 2 m/S 741 mmHg 98%
    06:00 +15°C° 0.1 mm 2 m/S 741 mmHg 95%
    07:00 +16°C° 0.1 mm 2 m/S 741 mmHg 92%
    08:00 +17°C° 0.1 mm 2 m/S 742 mmHg 90%
    09:00 +18°C° 0.2 mm 3 m/S 742 mmHg 84%
    10:00 +19°C° 0.2 mm 3 m/S 743 mmHg 78%
    11:00 +20°C° 0.2 mm 3 m/S 743 mmHg 72%
    12:00 +21°C° 0.3 mm 3 m/S 743 mmHg 70%
    13:00 +21°C° 0.3 mm 3 m/S 742 mmHg 68%
    14:00 +23°C° 0.3 mm 2 m/S 742 mmHg 65%
    15:00 +21°C° 0.2 mm 2 m/S 742 mmHg 69%
    16:00 +20°C° 0.2 mm 2 m/S 742 mmHg 73%
    17:00 +19°C° 0.2 mm 2 m/S 742 mmHg 77%
    18:00 +17°C° 0 mm 2 m/S 743 mmHg 79%
    19:00 +16°C° 0 mm 1 m/S 743 mmHg 81%
    20:00 +14°C° 0 mm 1 m/S 743 mmHg 83%
    21:00 +14°C° 0 mm 1 m/S 743 mmHg 84%
    22:00 +13°C° 0 mm 1 m/S 743 mmHg 84%
    23:00 +12°C° 0 mm 0 m/S 743 mmHg 84%

    7 April, Dienstag

    Zeit Temperatur Niederschläge Wind Luftdruck Luftfeuchtigkeit
    00:00 +12°C° 0 mm 0 m/S 743 mmHg 83%
    01:00 +13°C° 0 mm 1 m/S 743 mmHg 82%
    02:00 +12°C° 0 mm 1 m/S 742 mmHg 81%
    03:00 +12°C° 0 mm 1 m/S 742 mmHg 83%
    04:00 +12°C° 0 mm 1 m/S 742 mmHg 85%
    05:00 +12°C° 0 mm 2 m/S 742 mmHg 87%
    06:00 +14°C° 0 mm 2 m/S 743 mmHg 85%
    07:00 +16°C° 0 mm 2 m/S 743 mmHg 82%
    08:00 +17°C° 0 mm 2 m/S 743 mmHg 79%
    09:00 +19°C° 0 mm 2 m/S 743 mmHg 74%
    10:00 +20°C° 0 mm 2 m/S 743 mmHg 69%
    11:00 +21°C° 0 mm 2 m/S 743 mmHg 63%
    12:00 +23°C° 0 mm 2 m/S 743 mmHg 61%
    13:00 +24°C° 0 mm 2 m/S 743 mmHg 58%
    14:00 +24°C° 0 mm 2 m/S 742 mmHg 56%
    15:00 +23°C° 0 mm 2 m/S 742 mmHg 62%
    16:00 +21°C° 0 mm 2 m/S 742 mmHg 67%
    17:00 +19°C° 0 mm 2 m/S 742 mmHg 73%
    18:00 +18°C° 0 mm 2 m/S 742 mmHg 76%
    19:00 +17°C° 0 mm 2 m/S 742 mmHg 79%
    20:00 +16°C° 0 mm 1 m/S 742 mmHg 82%
    21:00 +16°C° 0 mm 1 m/S 742 mmHg 84%
    22:00 +15°C° 0 mm 1 m/S 742 mmHg 86%
    23:00 +15°C° 0 mm 1 m/S 742 mmHg 88%
    Mehr zeigen